Regional Weather Roundup
Issued by NWS

Home | Current Version | Previous Version | Text Only | Print | Product List | Glossary Off
Versions: 1 2 3 4 5 6 7 8 9 10 11 12 13 14 15 16 17 18 19 20 21 22 23 24 25 26 27 28 29 30 31 32 33 34 35 36 37 38 39 40 41 42 43 44 45 46 47 48 49 50

000
ASUS43 KOAX 281003
RWRNE

WEATHER ROUNDUP FOR NEBRASKA
NATIONAL WEATHER SERVICE OMAHA NE
500 AM CDT MON MAY 28 2018

NOTES: SATELLITE DATA IS BEING USED TO AUGMENT CLOUD COVER ABOVE
       12000 FEET.
       "FAIR" INDICATES FEW OR NO CLOUDS BELOW 12,000 FEET WITH NO
       SIGNIFICANT WEATHER AND/OR OBSTRUCTIONS TO VISIBILITY.


NEZ001>004-019>022-054>056-281100-
NEBRASKA PANHANDLE

CITY           SKY/WX    TMP DP  RH WIND       PRES   REMARKS
SCOTTSBLUFF    CLOUDY    58  58 100 S8        30.01F
ALLIANCE       LGT RAIN  58  57  97 SW17      30.03R
CHADRON        CLOUDY    56  56 100 W5        30.01R
GORDON         FAIR      61  56  84 SE7       29.97F
KIMBALL        CLOUDY    56  55  97 CALM      30.04F
SIDNEY         LGT RAIN  57  55  93 NW8       30.04R
$$

NEZ057>060-069>072-079>082-281100-
SOUTHWEST NEBRASKA

CITY           SKY/WX    TMP DP  RH WIND       PRES   REMARKS
NORTH PLATTE   LGT RAIN  64  60  87 NW5       29.93F
IMPERIAL       MOCLDY    61  58  90 N5        29.96S
LEXINGTON      CLOUDY    65  61  86 W8        29.94R
MCCOOK         CLOUDY    67  61  81 NE7       29.91F
OGALLALA       LGT RAIN  62  58  84 NE16      29.97F
$$

NEZ005>010-023>029-035>040-094-281100-
NORTH CENTRAL NEBRASKA

CITY           SKY/WX    TMP DP  RH WIND       PRES   REMARKS
VALENTINE      LGT RAIN  64  59  83 SW12      29.97F
AINSWORTH      CLOUDY    65  58  78 W10       29.94S
BROKEN BOW     CLOUDY    67  58  72 NE7       29.94R
O`NEILL        CLOUDY    68  59  73 NE5       29.95S
ORD            CLOUDY    66  58  75 CALM      29.94R
THEDFORD       CLOUDY    64  59  84 E3        30.00R
$$

NEZ041-046>049-061>064-073>077-083>087-281100-
SOUTH CENTRAL NEBRASKA

CITY           SKY/WX    TMP DP  RH WIND       PRES   REMARKS
GRAND ISLAND   MOCLDY    67  57  70 E6        29.93F
AURORA         CLOUDY    68  59  72 NE3       29.93F
HASTINGS       CLOUDY    69  60  73 E3        29.93F
HEBRON         CLOUDY    68  64  89 CALM      29.92S
HOLDREGE       CLOUDY    66  58  75 E12       29.93R
KEARNEY        CLOUDY    65  57  75 NE7       29.94F
YORK           CLOUDY    68  66  94 CALM      29.94F
$$

NEZ011>018-030>034-042>045-281100-
NORTHEAST NEBRASKA

CITY           SKY/WX    TMP DP  RH WIND       PRES   REMARKS
NORFOLK        CLOUDY    65  58  78 CALM      29.93S
ALBION         CLOUDY    66  58  75 NE5       29.93F
BLAIR          PTCLDY    74  63  66 CALM      29.93S
FREMONT        CLOUDY    72  63  73 CALM      29.93S
TEKAMAH        CLOUDY    72  62  71 SE3       29.92R
WAYNE          MOCLDY    68  59  72 CALM      29.93S
$$

NEZ050>053-065>068-078-088>093-281100-
SOUTHEAST NEBRASKA

CITY           SKY/WX    TMP DP  RH WIND       PRES   REMARKS
LINCOLN        CLOUDY    68  64  87 N5        29.93R
OMAHA EPPLEY   MOCLDY    76  64  66 SE3       29.91F
BEATRICE       CLOUDY    72  67  83 CALM      29.93R
FALLS CITY     PTCLDY    70  65  84 CALM      29.91S
NEBRASKA CITY  MOCLDY    70  67  89 CALM      29.93S
PLATTSMOUTH    CLOUDY    72  64  76 CALM      29.92S
$$

NEZ044-045-051>053-067-281100-
OMAHA AREA

CITY           SKY/WX    TMP DP  RH WIND       PRES   REMARKS
OMAHA EPPLEY   MOCLDY    76  64  66 SE3       29.91F
BLAIR          PTCLDY    74  63  66 CALM      29.93S
FREMONT        CLOUDY    72  63  73 CALM      29.93S
MILLARD        CLOUDY    71  65  83 CALM      29.93R
OFFUTT AFB     CLOUDY    65  63  93 CALM      29.91S
PLATTSMOUTH    CLOUDY    72  64  76 CALM      29.92S
WAHOO          FAIR      71  60  69 CALM      29.92F
$$




USA.gov is the U.S. government's official web portal to all federal, state and local government web resources and services.